Abbeville, LA

4:06 AM CDT on April 30, 2017 (GMT -0500)
Abbeville

Weather History for KIYA - February, 2013

Change the Weather History Date:

Tuesday, February 12, 2013

  Actual Average (KARA) Record (KARA)
Temperature  
Mean Temperature 66 °F -  
Max Temperature 76 °F 63 °F 81 °F (2017)
Min Temperature 56 °F 44 °F 24 °F (1981)
Cooling Degree Days 2    
Growing Degree Days 16 (Base 50)    
Moisture  
Dew Point 63 °F    
Average Humidity 98    
Maximum Humidity 100    
Minimum Humidity 90    
Precipitation  
Precipitation 0.00 in - - ()
Sea Level Pressure  
Sea Level Pressure 29.87 in    
Wind  
Wind Speed 10 mph (East)    
Max Wind Speed 17 mph    
Max Gust Speed 25 mph    
Visibility 7 miles    
Events Rain , Thunderstorm    
Averages and records for this station are not official NWS values.
T = Trace of Precipitation, MM = Missing Value Source: NWS Daily Summary

Daily Weather History Graph

Daily Weather History Graph

Search for Another Location

Airport or City:

Trip Planner

Search our weather history database for the weather conditions in past years. The results will help you decide how hot, cold, wet, or windy it might be!

Date:

Astronomy

Feb. 12, 2013 Rise Set
Actual Time 6:50 AM CST 5:55 PM CST
Civil Twilight 6:25 AM CST 6:19 PM CST
Nautical Twilight 5:57 AM CST 6:47 PM CST
Astronomical Twilight 5:29 AM CST 7:15 PM CST
Moon 8:03 AM CST (2/12) 8:38 PM CST (2/12)
Length of Visible Light 11h 53m
Length of Day
11h 04m
Waxing Crescent, 7% of the Moon is Illuminated
Feb 12
Waxing Crescent
Feb 17
First Quarter
Feb 25
Full
Mar 4
Last Quarter
Mar 11
New

Hourly Weather History & Observations

Time (CST) Temp. Dew Point Humidity Pressure Visibility Wind Dir Wind Speed Gust Speed Precip Events Conditions
12:15 AM 57.6 °F 57.6 °F 100% 30.00 in 10.0 mi ENE 11.5 mph 19.6 mph N/A   Overcast
12:35 AM 58.1 °F 58.1 °F 100% 30.00 in 10.0 mi NE 9.2 mph - N/A Thunderstorm Overcast
12:55 AM 58.1 °F 58.1 °F 100% 30.00 in 10.0 mi NE 10.4 mph - N/A   Overcast
1:15 AM 57.9 °F 57.9 °F 100% 30.00 in 10.0 mi NE 9.2 mph 17.3 mph N/A   Overcast
1:35 AM 57.7 °F 57.7 °F 100% 29.99 in 10.0 mi NE 12.7 mph 16.1 mph N/A   Overcast
1:55 AM 57.7 °F 57.7 °F 100% 29.98 in 10.0 mi NE 8.1 mph - N/A   Overcast
2:15 AM 57.7 °F 57.7 °F 100% 29.98 in 10.0 mi NE 8.1 mph - N/A Rain Light Rain
2:35 AM 57.7 °F 57.7 °F 100% 29.96 in 10.0 mi NE 10.4 mph - N/A   Overcast
2:55 AM 57.7 °F 57.7 °F 100% 29.96 in 10.0 mi ENE 8.1 mph - N/A   Overcast
3:15 AM 57.9 °F 57.9 °F 100% 29.96 in 10.0 mi ENE 11.5 mph - N/A   Overcast
3:35 AM 57.7 °F 57.7 °F 100% 29.95 in 10.0 mi ENE 9.2 mph - N/A   Overcast
3:55 AM 58.1 °F 58.1 °F 100% 29.95 in 10.0 mi ENE 9.2 mph - N/A   Overcast
4:15 AM 58.1 °F 58.1 °F 100% 29.94 in 10.0 mi ENE 10.4 mph - N/A   Overcast
4:35 AM 58.1 °F 58.1 °F 100% 29.93 in 10.0 mi ENE 5.8 mph - N/A   Overcast
4:55 AM 58.1 °F 58.1 °F 100% 29.93 in 10.0 mi ENE 6.9 mph - N/A   Overcast
5:15 AM 58.1 °F 58.1 °F 100% 29.92 in 7.0 mi ENE 6.9 mph - N/A   Overcast
5:35 AM 58.1 °F 58.1 °F 100% 29.92 in 5.0 mi ENE 5.8 mph - N/A   Overcast
5:55 AM 58.3 °F 58.3 °F 100% 29.91 in 4.0 mi East 8.1 mph - N/A   Overcast
6:15 AM 58.5 °F 58.5 °F 100% 29.91 in 3.0 mi ENE 6.9 mph - N/A   Overcast
6:35 AM 58.6 °F 58.6 °F 100% 29.90 in 2.5 mi East 8.1 mph - N/A   Overcast
6:55 AM 59.0 °F 59.0 °F 100% 29.90 in 2.0 mi East 6.9 mph - N/A   Overcast
7:15 AM 59.5 °F 59.5 °F 100% 29.90 in 1.8 mi East 8.1 mph - N/A   Overcast
7:35 AM 60.1 °F 60.1 °F 100% 29.89 in 1.0 mi East 8.1 mph - N/A   Overcast
7:55 AM 60.8 °F 60.8 °F 100% 29.88 in 1.0 mi East 5.8 mph - N/A   Overcast
8:15 AM 61.2 °F 61.2 °F 100% 29.87 in 1.2 mi ESE 6.9 mph - N/A   Overcast
8:35 AM 62.1 °F 62.1 °F 100% 29.86 in 1.0 mi ESE 8.1 mph - N/A   Overcast
8:55 AM 63.1 °F 63.1 °F 100% 29.87 in 1.8 mi ESE 9.2 mph - N/A   Overcast
9:15 AM 64.4 °F 64.4 °F 100% 29.86 in 3.0 mi ESE 10.4 mph - N/A   Overcast
9:35 AM 64.8 °F 64.8 °F 100% 29.87 in 2.0 mi SE 8.1 mph - N/A   Overcast
9:55 AM 65.3 °F 65.3 °F 100% 29.87 in 1.2 mi ESE 9.2 mph - N/A   Overcast
10:15 AM 65.7 °F 65.7 °F 100% 29.87 in 1.0 mi SE 5.8 mph - N/A   Overcast
10:35 AM 66.6 °F 66.6 °F 100% 29.87 in 1.0 mi SE 6.9 mph - N/A   Overcast
10:55 AM 68.0 °F 68.0 °F 100% 29.85 in 3.0 mi SE 8.1 mph - N/A   Overcast
11:15 AM 69.3 °F 69.3 °F 100% 29.84 in 5.0 mi SE 8.1 mph 16.1 mph N/A   Overcast
11:35 AM 70.0 °F 70.0 °F 100% 29.84 in 7.0 mi SSE 8.1 mph - N/A   Overcast
11:55 AM 69.8 °F 69.8 °F 100% 29.83 in 4.0 mi SSE 8.1 mph - N/A   Overcast
12:15 PM 70.0 °F 70.0 °F 100% 29.83 in 5.0 mi SSE 5.8 mph - N/A   Overcast
12:55 PM 70.0 °F 70.0 °F 100% 29.81 in 2.5 mi South 5.8 mph - N/A   Overcast
1:15 PM 70.5 °F 70.5 °F 100% 29.79 in 1.8 mi SSE 6.9 mph - N/A   Overcast
1:35 PM 72.5 °F 72.5 °F 100% 29.77 in 5.0 mi SSE 6.9 mph - N/A   Overcast
1:55 PM 75.0 °F 74.8 °F 99% 29.77 in 10.0 mi South 9.2 mph - N/A   Overcast
2:15 PM 76.5 °F 74.1 °F 92% 29.77 in 10.0 mi SSW 10.4 mph 21.9 mph N/A   Overcast
2:35 PM 76.5 °F 73.9 °F 92% 29.76 in 10.0 mi SW 13.8 mph 23.0 mph N/A   Overcast
2:55 PM 76.3 °F 73.4 °F 91% 29.76 in 10.0 mi SW 16.1 mph 24.2 mph N/A   Overcast
3:15 PM 76.8 °F 73.6 °F 90% 29.75 in 10.0 mi SW 12.7 mph 25.3 mph N/A   Mostly Cloudy
3:55 PM 75.6 °F 73.4 °F 93% 29.74 in 10.0 mi SW 15.0 mph 21.9 mph N/A   Overcast
4:15 PM 75.4 °F 73.2 °F 93% 29.76 in 10.0 mi SW 13.8 mph 21.9 mph N/A   Overcast
4:55 PM 74.5 °F 72.9 °F 95% 29.76 in 10.0 mi SW 13.8 mph 23.0 mph N/A   Overcast
5:15 PM 73.9 °F 72.7 °F 96% 29.76 in 10.0 mi SW 12.7 mph 20.7 mph N/A   Overcast
5:35 PM 73.4 °F 71.8 °F 95% 29.77 in 10.0 mi WSW 17.3 mph - N/A   Overcast
5:55 PM 72.5 °F 71.4 °F 96% 29.79 in 10.0 mi West 16.1 mph 20.7 mph N/A   Overcast
6:15 PM 69.1 °F 67.3 °F 94% 29.80 in 10.0 mi WNW 16.1 mph 23.0 mph N/A   Mostly Cloudy
6:35 PM 68.0 °F 67.1 °F 97% 29.80 in 10.0 mi WNW 11.5 mph 18.4 mph N/A   Overcast
6:55 PM 66.6 °F 65.3 °F 96% 29.81 in 10.0 mi WNW 13.8 mph - N/A   Mostly Cloudy
7:15 PM 65.1 °F 63.5 °F 94% 29.82 in 10.0 mi WNW 9.2 mph - N/A   Mostly Cloudy
7:55 PM 63.7 °F 62.2 °F 95% 29.83 in 10.0 mi WNW 8.1 mph - N/A   Overcast
8:15 PM 63.3 °F 61.9 °F 95% 29.86 in 10.0 mi NW 13.8 mph - N/A   Mostly Cloudy
8:35 PM 62.6 °F 61.3 °F 96% 29.86 in 10.0 mi WNW 6.9 mph - N/A   Mostly Cloudy
8:55 PM 62.1 °F 61.2 °F 97% 29.87 in 10.0 mi WNW 10.4 mph - N/A   Overcast
9:15 PM 61.2 °F 58.6 °F 91% 29.88 in 10.0 mi WNW 12.7 mph - N/A   Overcast
9:35 PM 60.1 °F 57.9 °F 93% 29.89 in 10.0 mi WNW 12.7 mph - N/A   Overcast
9:55 PM 59.7 °F 57.6 °F 93% 29.89 in 10.0 mi WNW 12.7 mph 17.3 mph N/A   Overcast
10:15 PM 58.6 °F 56.7 °F 93% 29.90 in 10.0 mi WNW 17.3 mph - N/A   Mostly Cloudy
10:35 PM 58.1 °F 56.1 °F 93% 29.91 in 10.0 mi NW 13.8 mph - N/A   Mostly Cloudy
10:55 PM 57.7 °F 56.1 °F 94% 29.90 in 10.0 mi NW 8.1 mph - N/A   Mostly Cloudy
11:35 PM 57.2 °F 55.4 °F 94% 29.91 in 10.0 mi NW 8.1 mph - N/A   Clear
11:55 PM 56.5 °F 55.6 °F 97% 29.91 in 10.0 mi NW 6.9 mph - N/A   Clear